Cosmos 773 Rocket - Orbit

View from above orbital plane
View from above orbital plane
View from above satellite
View from above satellite

Ground track
Ground track

The orbit data is extracted from the following two-line orbital elements,

1 08344U 75094B   13143.17275976  .00000167  00000-0  63072-4 0  1910
2 08344 074.0584 342.8780 0022815 257.6161 220.5180 14.38554313971964
Epoch (UTC): 23 May 2013 04:08:46
Eccentricity: 0.0022815
inclination: 74.0584°
perigee height: 747 km
apogee height: 779 km
right ascension of ascending node: 342.8780°
argument of perigee: 257.6161°
revolutions per day: 14.38554313
mean anomaly at epoch: 220.5180°
orbit number at epoch: 97196

The dashed part of the orbit path shows where the satellite is in the earth's shadow,  

Developed and maintained by Chris Peat, Heavens-Above GmbH. Please read the updated FAQ before sending e-mail. Imprint. DLR